Marianna, FL

5:54 AM CST on February 20, 2017 (GMT -0600)
Marianna Municipal

Weather History for KMAI - April, 2014

Change the Weather History Date:

Saturday, April 26, 2014

  Actual Average Record
Temperature  
Mean Temperature 75 °F 69 °F  
Max Temperature 87 °F 82 °F 91 °F (2011)
Min Temperature 63 °F 57 °F 46 °F (1998)
Degree Days  
Heating Degree Days 0    
Month to date heating degree days 63  
Since 1 July heating degree days 1741  
Cooling Degree Days 10    
Month to date cooling degree days 80  
Year to date cooling degree days 92  
Growing Degree Days 25 (Base 50)    
Moisture  
Dew Point 64 °F    
Average Humidity 70    
Maximum Humidity 100    
Minimum Humidity 40    
Precipitation  
Precipitation 0.00 in 0.07 in 3.34 in (1997)
Month to date precipitation 7.65 3.49  
Year to date precipitation 22.84 19.01  
Sea Level Pressure  
Sea Level Pressure 29.97 in    
Wind  
Wind Speed 4 mph (SW)    
Max Wind Speed 9 mph    
Max Gust Speed 12 mph    
Visibility 6 miles    
Events Fog    
T = Trace of Precipitation, MM = Missing Value Source: NWS Daily Summary

Daily Weather History Graph

Daily Weather History Graph

Search for Another Location

Airport or City:

Trip Planner

Search our weather history database for the weather conditions in past years. The results will help you decide how hot, cold, wet, or windy it might be!

Date:

Astronomy

Apr. 26, 2014 Rise Set
Actual Time 6:01 AM CDT 7:16 PM CDT
Civil Twilight 5:36 AM CDT 7:41 PM CDT
Nautical Twilight 5:05 AM CDT 8:11 PM CDT
Astronomical Twilight 4:34 AM CDT 8:42 PM CDT
Moon 4:12 AM CDT (4/26) 4:53 PM CDT (4/26)
Length of Visible Light 14h 05m
Length of Day
13h 14m
Waning Crescent, 8% of the Moon is Illuminated
Apr 26
Waning Crescent
Apr 29
New
May 6
First Quarter
May 14
Full
May 21
Last Quarter

Hourly Weather History & Observations

Time (CDT) Temp. Heat Index Dew Point Humidity Pressure Visibility Wind Dir Wind Speed Gust Speed Precip Events Conditions
12:53 AM 66.9 °F - 66.9 °F 100% 29.96 in 9.0 mi SSW 3.5 mph - N/A   Clear
1:53 AM 64.9 °F - 64.9 °F 100% 29.94 in 5.0 mi Calm Calm - N/A   Clear
2:14 AM 64.0 °F - 64.0 °F 100% 29.93 in 5.0 mi Calm Calm - N/A   Scattered Clouds
2:23 AM 64.0 °F - 64.0 °F 100% 29.93 in 4.0 mi Calm Calm - N/A   Mostly Cloudy
2:28 AM 64.9 °F - 64.9 °F 100% 29.93 in 1.5 mi Calm Calm - N/A   Mostly Cloudy
2:37 AM 66.0 °F - 66.0 °F 100% 29.93 in 0.5 mi Calm Calm - N/A Fog Fog
2:53 AM 64.9 °F - 64.9 °F 100% 29.93 in 0.2 mi Calm Calm - N/A Fog Fog
3:53 AM 64.9 °F - 64.9 °F 100% 29.93 in 0.2 mi Calm Calm - N/A Fog Fog
4:53 AM 64.9 °F - 64.9 °F 100% 29.95 in 0.2 mi West 3.5 mph - N/A Fog Fog
5:53 AM 64.9 °F - 64.9 °F 100% 29.98 in 0.8 mi NW 3.5 mph - N/A   Mist
6:04 AM 64.9 °F - 64.9 °F 100% 29.98 in 1.2 mi Calm Calm - N/A   Overcast
6:26 AM 64.0 °F - 64.0 °F 100% 29.99 in 2.5 mi Calm Calm - N/A   Overcast
6:33 AM 64.0 °F - 64.0 °F 100% 30.00 in 3.0 mi Calm Calm - N/A   Overcast
6:46 AM 64.0 °F - 64.0 °F 100% 30.00 in 2.0 mi Calm Calm - N/A   Overcast
6:53 AM 64.9 °F - 64.9 °F 100% 30.00 in 2.5 mi Calm Calm - N/A   Overcast
7:15 AM 64.9 °F - 64.9 °F 100% 30.00 in 3.0 mi Calm Calm - N/A   Overcast
7:53 AM 64.9 °F - 64.9 °F 100% 30.01 in 4.0 mi Calm Calm - N/A   Overcast
8:24 AM 66.9 °F - 66.0 °F 97% 30.02 in 8.0 mi Variable 4.6 mph - N/A   Mostly Cloudy
8:48 AM 68.0 °F - 64.4 °F 88% 30.02 in 10.0 mi NE 5.8 mph - N/A   Scattered Clouds
8:53 AM 69.1 °F - 66.0 °F 90% 30.02 in 10.0 mi ENE 4.6 mph - N/A   Partly Cloudy
9:53 AM 75.0 °F - 64.0 °F 69% 30.02 in 10.0 mi Variable 5.8 mph - N/A   Clear
10:53 AM 79.0 °F - 62.1 °F 56% 30.04 in 10.0 mi Calm Calm - N/A   Clear
11:53 AM 82.0 °F 83.0 °F 62.1 °F 51% 30.01 in 10.0 mi Variable 6.9 mph - N/A   Clear
12:53 PM 81.0 °F 81.1 °F 57.9 °F 45% 30.00 in 10.0 mi North 3.5 mph - N/A   Clear
1:53 PM 84.9 °F 84.4 °F 59.0 °F 41% 29.98 in 10.0 mi Calm Calm - N/A   Clear
2:53 PM 86.0 °F 85.4 °F 59.0 °F 40% 29.96 in 10.0 mi Variable 3.5 mph - N/A   Partly Cloudy
3:53 PM 84.9 °F 84.8 °F 60.1 °F 43% 29.94 in 10.0 mi WSW 6.9 mph - N/A   Partly Cloudy
4:53 PM 86.0 °F 86.3 °F 62.1 °F 44% 29.94 in 10.0 mi SSE 5.8 mph - N/A   Scattered Clouds
5:53 PM 82.9 °F 83.7 °F 62.1 °F 49% 29.94 in 10.0 mi SW 5.8 mph - N/A   Mostly Cloudy
6:53 PM 79.0 °F - 66.0 °F 64% 29.94 in 10.0 mi SSW 6.9 mph - N/A   Clear
7:53 PM 77.0 °F - 64.9 °F 66% 29.95 in 10.0 mi West 6.9 mph - N/A   Clear
8:53 PM 73.9 °F - 66.0 °F 76% 29.97 in 10.0 mi South 6.9 mph - N/A   Clear
9:53 PM 71.1 °F - 68.0 °F 90% 29.99 in 10.0 mi SSW 8.1 mph - N/A   Clear
10:53 PM 71.1 °F - 66.9 °F 87% 29.99 in 10.0 mi South 3.5 mph - N/A   Clear
11:53 PM 69.1 °F - 68.0 °F 96% 29.99 in 9.0 mi Calm Calm - N/A   Clear